Погода в Сейлеме

США     44°57′09″N   123°01′46″W
темп.,
°C
ветер,
м/с
пор.,
м/с
влажн.,
%
обл.,
%
осадки,
мм/ч
давл.,
гПа
погр.,
м
7 июля, чт
чт723:00+14зюз2292100 0.3 101522
02:00+15юз1286100 0.0 101645
05:00+15юз1186100 0.0 101634
08:00+16юз1281100 0.0 1017314
11:00+21ююз126197 0.0 10171153
14:00+24юз134969 0.1 10161930
17:00+22з235967 0.1 1016633
20:00+19зсз376911 0.0 1016245
8 июля, пт
пт823:00+14зюз12863 0.0 101822
02:00+12зюз11935 0.0 101910
05:00+11юз11955 0.0 101910
08:00+15ссз118176 0.0 1019244
11:00+20с2167100 0.0 1019690
14:00+24с2252100 0.0 10181155
17:00+25з1246100 0.0 10171275
20:00+21зсз35680 0.0 1018154
9 июля, сб
сб923:00+14зюз12790 0.0 101922
02:00+12юз118761 0.0 102012
05:00+13юз118365 0.0 102026
08:00+16юз117699 0.0 1021264
11:00+20зсз125996 0.0 1022813
14:00+25зсз12445 0.0 10211464
17:00+25зсз334236 0.0 10202045
20:00+19зсз496461 0.0 1022330
10 июля, вс
вс1023:00+14зюз138029 0.0 102497
02:00+11зюз119214 0.0 102510
05:00+10зюз019456 0.0 102510
08:00+14ссз117919 0.0 1026250
11:00+20с22595 0.0 1025796
14:00+24с23475 0.0 10241037
17:00+26ссв244469 0.0 10221005
20:00+22ссз11615 0.0 102114
11 июля, пн
пн1123:00+16с23790 0.0 102341
02:00+14с24880 0.0 102263
05:00+12ссв24940 0.0 102192
08:00+16ссв47780 0.0 1021361
11:00+23ссв46570 0.0 1019661
14:00+29с57390 0.0 1016834
17:00+31с59380 0.0 1013832
20:00+25с513490 0.0 1013384